Jordan, MT

11:23 AM MST on November 18, 2017 (GMT -0700)
Jordan

Weather History for KJDN - May, 2013

Change the Weather History Date:

Thursday, May 23, 2013

  Actual Average Record
Temperature  
Mean Temperature 60 °F 55 °F  
Max Temperature 69 °F 69 °F 98 °F (1980)
Min Temperature 50 °F 41 °F 26 °F (1931)
Degree Days  
Heating Degree Days 5 10  
Month to date heating degree days 234 315  
Since 1 July heating degree days 7556 8049  
Cooling Degree Days 0 0  
Month to date cooling degree days 10 0  
Year to date cooling degree days 10 0  
Growing Degree Days 9 (Base 50)    
Moisture  
Dew Point 40 °F    
Average Humidity 55    
Maximum Humidity 71    
Minimum Humidity 39    
Precipitation  
Precipitation 0.00 in 0.08 in 1.25 in (1907)
Month to date precipitation 0.19 1.41  
Year to date precipitation 3.03 3.49  
Snow  
Snow 0.00 in - - ()
Month to date snowfall 0.0  
Since 1 July snowfall 0.0  
Snow Depth 0.00 in    
Sea Level Pressure  
Sea Level Pressure 29.94 in    
Wind  
Wind Speed 23 mph (ESE)    
Max Wind Speed 37 mph    
Max Gust Speed 46 mph    
T = Trace of Precipitation, MM = Missing Value Source: NWS Daily Summary

Daily Weather History Graph

Daily Weather History Graph

Search for Another Location

Airport or City:

Trip Planner

Search our weather history database for the weather conditions in past years. The results will help you decide how hot, cold, wet, or windy it might be!

Date:

Astronomy

May. 23, 2013 Rise Set
Actual Time 5:22 AM MDT 8:47 PM MDT
Civil Twilight 4:44 AM MDT 9:25 PM MDT
Nautical Twilight 3:54 AM MDT 10:15 PM MDT
Astronomical Twilight 2:50 AM MDT 11:21 PM MDT
Moon 7:18 PM MDT (5/23) 4:16 AM MDT (5/23)
Length of Visible Light 16h 40m
Length of Day
15h 25m
Waxing Gibbous, 97% of the Moon is Illuminated
May 23
Waxing Gibbous
May 24
Full
May 31
Last Quarter
Jun 8
New
Jun 16
First Quarter

Hourly Weather History & Observations

Time (MDT) Temp. Dew Point Humidity Pressure Visibility Wind Dir Wind Speed Gust Speed Precip Events Conditions
12:48 AM 53.1 °F 32.0 °F 45% 30.06 in - ESE 16.1 mph - N/A   Unknown
1:48 AM 52.0 °F 30.9 °F 45% 30.05 in - ESE 16.1 mph 24.2 mph N/A   Unknown
2:48 AM 51.1 °F 32.0 °F 48% 30.04 in - ESE 16.1 mph - N/A   Unknown
3:48 AM 51.1 °F 33.1 °F 50% 30.04 in - East 15.0 mph - N/A   Unknown
4:48 AM 50.0 °F 37.0 °F 61% 30.04 in - East 12.7 mph - N/A   Unknown
5:48 AM 51.1 °F 41.0 °F 68% 30.02 in - East 16.1 mph 23.0 mph N/A   Unknown
6:48 AM 52.0 °F 42.1 °F 69% 30.02 in - East 20.7 mph 29.9 mph N/A   Unknown
7:48 AM 55.0 °F 43.0 °F 64% 30.02 in - SE 26.5 mph 38.0 mph N/A   Unknown
8:48 AM 57.0 °F 42.1 °F 57% 29.99 in - SE 31.1 mph 44.9 mph N/A   Unknown
9:48 AM 57.9 °F 41.0 °F 53% 29.99 in - ESE 28.8 mph 38.0 mph N/A   Unknown
10:48 AM 62.1 °F 41.0 °F 46% 29.97 in - SE 29.9 mph 44.9 mph N/A   Unknown
11:48 AM 63.0 °F 41.0 °F 45% 29.96 in - SE 28.8 mph 36.8 mph N/A   Unknown
12:48 PM 64.9 °F 41.0 °F 42% 29.94 in - SE 29.9 mph 43.7 mph N/A   Unknown
1:48 PM 66.9 °F 41.0 °F 39% 29.91 in - SE 31.1 mph 40.3 mph N/A   Unknown
2:48 PM 64.9 °F 39.9 °F 40% 29.92 in - SE 29.9 mph 36.8 mph N/A   Unknown
3:48 PM 66.0 °F 41.0 °F 40% 29.89 in - SE 24.2 mph 35.7 mph N/A   Unknown
4:48 PM 66.9 °F 42.1 °F 40% 29.88 in - SE 24.2 mph 29.9 mph N/A   Unknown
5:48 PM 68.0 °F 43.0 °F 40% 29.85 in - SE 23.0 mph 32.2 mph N/A   Unknown
6:48 PM 68.0 °F 44.1 °F 42% 29.83 in - ESE 24.2 mph 32.2 mph N/A   Unknown
7:48 PM 66.9 °F 44.1 °F 44% 29.82 in - ESE 20.7 mph 29.9 mph N/A   Unknown
8:48 PM 64.9 °F 44.1 °F 47% 29.83 in - ESE 17.3 mph - N/A   Unknown
9:48 PM 63.0 °F 44.1 °F 50% 29.83 in - East 17.3 mph - N/A   Unknown
10:48 PM 62.1 °F 43.0 °F 50% 29.80 in - ESE 21.9 mph 32.2 mph N/A   Unknown
11:48 PM 60.1 °F 42.1 °F 51% 29.80 in - ESE 25.3 mph 31.1 mph N/A   Unknown